Location: Sungai Bunut
(2.6333°N, 113.7333°E)
Time: 12:03:25
(UTC+00:00)

CZ-4B R/B - Pass Details

Date: 16 October 2021
Orbit: 496 x 644 km, 97.8° (Epoch: 28 November)

Event Time Altitude Azimuth Distance (km) Brightness Sun altitude
Rises 20:58:01 0° 18° (NNE) 2,595 7.4 -18.3°
Reaches altitude 10° 21:00:05 10° 23° (NNE) 1,727 6.5 -17.8°
Maximum altitude 21:03:44 56° 102° (ESE) 627 4.4 -16.9°
Drops below altitude 10° 21:07:32 10° 180° (S) 1,804 6.5 -16.0°
Sets 21:09:44 0° 184° (S) 2,723 7.4 -15.4°
